TimeACST,TemperatureF,Dew PointF,Humidity,Sea Level PressureIn,VisibilityMPH,Wind Direction,Wind SpeedMPH,Gust SpeedMPH,PrecipitationIn,Events,Conditions,WindDirDegrees,DateUTC
12:00 AM,78.8,73.4,83,29.71,6.2,WNW,4.6,-,N/A,,Unknown,300,2013-11-17 14:30:00
12:30 AM,78.8,73.4,83,29.71,6.2,SW,5.8,-,N/A,,Unknown,220,2013-11-17 15:00:00
1:00 AM,78.8,73.4,83,29.68,6.2,West,3.5,-,N/A,,Unknown,260,2013-11-17 15:30:00
1:30 AM,78.8,73.4,83,29.68,6.2,North,6.9,-,N/A,,Unknown,360,2013-11-17 16:00:00
2:00 AM,78.8,73.4,83,29.68,6.2,North,8.1,-,N/A,,Unknown,360,2013-11-17 16:30:00
2:30 AM,78.8,75.2,89,29.71,6.2,WSW,3.5,-,N/A,,Mostly Cloudy,240,2013-11-17 17:00:00
3:00 AM,78.8,73.4,83,29.71,6.2,Calm,Calm,-,N/A,,Scattered Clouds,0,2013-11-17 17:30:00
3:30 AM,78.8,75.2,89,29.71,6.2,Calm,Calm,-,N/A,,Unknown,0,2013-11-17 18:00:00
4:00 AM,77.0,73.4,89,29.71,6.2,East,4.6,-,N/A,,Unknown,90,2013-11-17 18:30:00
4:30 AM,77.0,73.4,89,29.68,6.2,North,5.8,-,N/A,,Scattered Clouds,350,2013-11-17 19:00:00
5:00 AM,77.0,73.4,89,29.71,6.2,NNW,4.6,-,N/A,,Scattered Clouds,340,2013-11-17 19:30:00
5:30 AM,77.0,73.4,89,29.71,6.2,NW,4.6,-,N/A,,Unknown,320,2013-11-17 20:00:00
6:00 AM,77.0,73.4,89,29.71,6.2,NW,3.5,-,N/A,,Unknown,320,2013-11-17 20:30:00
6:30 AM,77.0,73.4,89,29.71,6.2,NW,3.5,-,N/A,,Unknown,320,2013-11-17 21:00:00
7:00 AM,78.8,73.4,83,29.71,6.2,NNW,5.8,-,N/A,,Unknown,330,2013-11-17 21:30:00
7:30 AM,80.6,71.6,74,29.74,6.2,NNW,3.5,-,N/A,,Unknown,340,2013-11-17 22:00:00
8:00 AM,80.6,71.6,74,29.74,6.2,NNW,6.9,-,N/A,,Unknown,330,2013-11-17 22:30:00
8:30 AM,84.2,71.6,66,29.74,6.2,NW,6.9,-,N/A,,Unknown,320,2013-11-17 23:00:00
9:00 AM,87,73,54,,12,West,2.3,,,,Partly Cloudy,270,2013-11-17 23:30:00
9:00 AM,86.0,71.6,62,29.74,6.2,NNW,8.1,-,N/A,,Unknown,330,2013-11-17 23:30:00
9:30 AM,86.0,69.8,58,29.74,6.2,NW,10.4,-,N/A,,Scattered Clouds,310,2013-11-18 00:00:00
10:00 AM,89.6,69.8,52,29.74,6.2,WNW,10.4,-,N/A,,Scattered Clouds,290,2013-11-18 00:30:00
10:30 AM,93.2,71.6,49,29.74,6.2,WNW,10.4,-,N/A,,Scattered Clouds,300,2013-11-18 01:00:00
11:00 AM,93.2,69.8,46,29.74,6.2,NW,9.2,-,N/A,,Unknown,320,2013-11-18 01:30:00
11:30 AM,95.0,62.6,34,29.71,6.2,NW,10.4,-,N/A,,Unknown,310,2013-11-18 02:00:00
12:00 PM,95.0,66.2,39,29.71,6.2,North,6.9,-,N/A,,Unknown,350,2013-11-18 02:30:00
12:30 PM,98.6,64.4,32,29.68,6.2,WNW,11.5,-,N/A,,Unknown,300,2013-11-18 03:00:00
1:00 PM,98.6,62.6,30,29.65,6.2,NW,11.5,-,N/A,,Unknown,320,2013-11-18 03:30:00
1:30 PM,100.4,66.2,33,29.62,6.2,WNW,12.7,-,N/A,,Unknown,290,2013-11-18 04:00:00
2:00 PM,98.6,64.4,32,29.62,6.2,NNW,11.5,-,N/A,,Unknown,340,2013-11-18 04:30:00
2:30 PM,100.4,62.6,29,29.59,6.2,NNW,11.5,-,N/A,,Unknown,330,2013-11-18 05:00:00
3:00 PM,99,99,98,,6,West,2.3,,,,Partly Cloudy,270,2013-11-18 05:30:00
3:00 PM,100.4,64.4,31,29.59,6.2,WNW,12.7,24.2,N/A,,Mostly Cloudy,300,2013-11-18 05:30:00
3:30 PM,98.6,64.4,32,29.59,6.2,WNW,11.5,-,N/A,,Scattered Clouds,300,2013-11-18 06:00:00
4:00 PM,98.6,64.4,32,29.59,6.2,NW,13.8,-,N/A,,Unknown,320,2013-11-18 06:30:00
4:30 PM,96.8,64.4,34,29.59,6.2,WNW,13.8,-,N/A,,Unknown,290,2013-11-18 07:00:00
5:00 PM,96.8,66.2,37,29.59,6.2,West,10.4,-,N/A,,Unknown,280,2013-11-18 07:30:00
5:20 PM,93.2,68.0,44,29.62,6.2,West,23.0,-,N/A,,Unknown,270,2013-11-18 07:50:00
5:30 PM,93.2,68.0,44,29.62,6.2,West,18.4,-,N/A,,Unknown,280,2013-11-18 08:00:00
6:00 PM,91.4,68.0,46,29.65,6.2,West,15.0,-,N/A,,Scattered Clouds,270,2013-11-18 08:30:00
6:30 PM,89.6,66.2,46,29.65,6.2,West,10.4,-,N/A,,Scattered Clouds,270,2013-11-18 09:00:00
7:00 PM,87.8,68.0,52,29.68,6.2,WNW,12.7,-,N/A,,Unknown,290,2013-11-18 09:30:00
7:30 PM,86.0,69.8,58,29.68,6.2,NW,12.7,-,N/A,,Unknown,320,2013-11-18 10:00:00
8:00 PM,84.2,69.8,62,29.71,6.2,NNW,10.4,-,N/A,,Unknown,330,2013-11-18 10:30:00
8:30 PM,84.2,69.8,62,29.71,6.2,NNW,10.4,-,N/A,,Scattered Clouds,330,2013-11-18 11:00:00
9:00 PM,84.2,71.6,66,29.71,6.2,NNW,9.2,-,N/A,,Scattered Clouds,330,2013-11-18 11:30:00
9:30 PM,82.4,71.6,70,29.74,6.2,West,5.8,-,N/A,,Scattered Clouds,280,2013-11-18 12:00:00
10:00 PM,82.4,71.6,70,29.74,6.2,West,8.1,-,N/A,,Unknown,270,2013-11-18 12:30:00
10:30 PM,82.4,71.6,70,29.74,6.2,WNW,6.9,-,N/A,,Unknown,290,2013-11-18 13:00:00
11:00 PM,82.4,69.8,66,29.74,6.2,WNW,5.8,-,N/A,,Mostly Cloudy,290,2013-11-18 13:30:00
11:30 PM,82.4,71.6,70,29.74,6.2,ESE,8.1,-,N/A,,Mostly Cloudy,120,2013-11-18 14:00:00